Zurück zum Katalog

XM-7

AktivKommunikationGEO
NORAD 47240·PAYLOAD·🇺🇸 United States

Gestartet Dec 13, 2020 von Cape Canaveral Space Force Station

Loading…

TLE

AktuellSource: Space-Track

Epoche: Sep 14, 2026, 13:23 UTC

1 47240U 20096A   26257.55824416 -.00000213  00000-0  00000-0 0  9998
2 47240   0.0159 133.3124 0004624 350.5813 345.4400  1.00271338  8342

Verfolge XM-7 in Echtzeit mit AllMySat

Download on the App Store